Flag for Australia Weather past 2 weeks in Adelaide, South Australia, Australia

Now
52 °F

Sprinkles. Passing clouds.


Feels Like: 48 °F
Forecast: 48 / 56 °F
Wind: 10 mph from Southwest

Location: Adelaide Airport

Current Time: Aug 5, 2015 at 6:47:37 PM

Latest Report: Aug 5, 2015 at 6:00 PM


Visibility: N/A

Pressure: 30.18 "Hg

Humidity: 82%

Dew point: 46 °F

Location of AdelaideLocation

Historic Weather in Adelaide — Graph

°F

Adelaide temperature yesterday

Maximum temperature yesterday: 54 °F (at 11:00 AM)
Minimum temperature yesterday: 45 °F (at 12:00 AM)
Average temperature yesterday: 50 °F

Past Weeks' High & Low Weather Summary

 TemperatureHumidityPressure
High64 °F (Jul 23, 2:30 PM)100% (Jul 22, 7:30 AM)30.66 "Hg (Jul 22, 7:30 AM)
Low37 °F (Jul 23, 6:00 AM)42% (Jul 23, 12:30 PM)29.89 "Hg (Aug 1, 12:30 AM)
Average52 °F78%30.18 "Hg
* Reported Jul 21 5:30 PM — Aug 5 5:30 PM, Adelaide, Weather by CustomWeather, © 2015

Note: Actual official high and low records may vary slightly from our data, if they occured in-between our weather recording intervals... More about our weather records

Advertising

Adelaide weather history for previous 24 hours

 ConditionsComfort  
Time TempWeatherWind HumidityBarometerVisibility
5:30 PM
Wed, Aug 5
54 °FSprinkles. Passing clouds.13 mph72%30.18 "HgN/A
5:00 PM54 °FScattered clouds.17 mph67%30.18 "HgN/A
4:30 PM54 °FPassing clouds.15 mph72%30.15 "HgN/A
4:00 PM54 °FScattered clouds.15 mph72%30.15 "HgN/A
3:30 PM52 °FSprinkles. Broken clouds.18 mph82%30.15 "HgN/A
3:00 PM55 °FScattered clouds.15 mph67%30.15 "HgN/A
2:30 PM55 °FPassing clouds.18 mph67%30.15 "HgN/A
2:00 PM54 °FSprinkles. Broken clouds.21 mph77%30.15 "HgN/A
1:30 PM54 °FScattered showers. Partly sunny.16 mph77%30.15 "HgN/A
12:30 PM50 °FSprinkles. Broken clouds.16 mph94%30.15 "HgN/A
11:30 AM55 °FScattered showers. Broken clouds.15 mph67%30.18 "HgN/A
11:00 AM55 °FScattered showers. Broken clouds.18 mph72%30.18 "HgN/A
10:30 AM54 °FPartly sunny.17 mph77%30.18 "HgN/A
10:00 AM54 °FBroken clouds.17 mph72%30.18 "HgN/A
9:30 AM54 °FScattered showers. Scattered clouds.16 mph77%30.18 "HgN/A
9:00 AM54 °FPartly sunny.17 mph77%30.15 "HgN/A
8:30 AM52 °FScattered showers. Scattered clouds.20 mph82%30.15 "HgN/A
8:00 AM54 °FScattered showers. Partly sunny.16 mph77%30.15 "HgN/A
7:30 AM54 °FScattered showers. Broken clouds.18 mph77%30.15 "HgN/A
7:00 AM54 °FScattered showers. Broken clouds.20 mph77%30.15 "HgN/A
6:30 AM54 °FScattered showers. Passing clouds.20 mph77%30.12 "HgN/A
6:00 AM52 °FPassing clouds.20 mph82%30.12 "HgN/A
5:30 AM52 °FPassing clouds.16 mph82%30.12 "HgN/A
5:00 AM52 °FScattered showers. Passing clouds.17 mph88%30.12 "HgN/A
4:30 AM52 °FRain showers. Passing clouds.17 mph88%30.12 "Hg2 mi
4:00 AM54 °FScattered showers. Partly cloudy.20 mph72%30.12 "HgN/A
3:30 AM52 °FScattered showers. Passing clouds.16 mph77%30.12 "HgN/A
3:00 AM54 °FScattered showers. Partly cloudy.17 mph77%30.15 "HgN/A
2:30 AM52 °FScattered showers. Passing clouds.17 mph77%30.15 "HgN/A
2:00 AM52 °FPassing clouds.15 mph77%30.15 "HgN/A
1:30 AM52 °FPassing clouds.15 mph77%30.15 "HgN/A
1:00 AM52 °FScattered showers. Partly cloudy.15 mph94%30.18 "HgN/A
12:30 AM52 °FSprinkles. Partly cloudy.17 mph94%30.18 "Hg6 mi
12:00 AM52 °FSprinkles. Partly cloudy.17 mph100%30.18 "Hg4 mi
11:30 PM
Tue, Aug 4
52 °FRain showers. Partly cloudy.15 mph100%30.18 "Hg2 mi
11:00 PM52 °FSprinkles. Partly cloudy.17 mph94%30.18 "Hg3 mi
10:30 PM54 °FSprinkles. Partly cloudy.15 mph88%30.18 "Hg4 mi
10:00 PM54 °FPassing clouds.12 mph82%30.21 "HgN/A
9:30 PM52 °FPassing clouds.12 mph88%30.21 "HgN/A
9:00 PM52 °FPassing clouds.13 mph88%30.21 "HgN/A
8:30 PM52 °FPassing clouds.16 mph82%30.21 "HgN/A
8:00 PM54 °FScattered showers. Partly cloudy.17 mph77%30.24 "HgN/A
7:30 PM54 °FPartly cloudy.10 mph77%30.24 "HgN/A
7:00 PM54 °FScattered showers. Partly cloudy.12 mph72%30.24 "HgN/A
6:30 PM52 °FPassing clouds.9 mph82%30.24 "HgN/A
6:00 PM54 °FScattered showers. Passing clouds.14 mph72%30.24 "HgN/A
Weather by CustomWeather, © 2015

See weather overviewHow to use our weather pages